STARLINK-11743

Satellite information

Favourite Embed

Satellite Type and Status

PAYLOADIN ORBIT

Key statistics

Satellite STARLINK-11743 at a glance.

Uptime

183

Days in orbit

Revolutions

≈ 15.7

Per day

Orbit

LEO

Low Earth Orbit

Inclination

43.0

Latest

Satellite identification and parameters

Extended collection of information and parameters for STARLINK-11743.

Object identification

Identified? True

Debris? False

Object name: STARLINK-11743

International designator: 2025-127K

Object number (NORAD): 64379

Object ID (CCSDS): 64379

Country: UNITED STATES OF AMERICA (US)

Current information (Y/N): Y

RCS size: LARGE

Orbital parameters

Period: 91.661 minutes

Inclination: 42.999 deg

SMA: 6734.175 km

Apoapsis: 360.696 km

Periapsis: 351.385 km

RAAN: 252.8241 deg

Eccentricy: 0.00069133

Argument of periapsis: 246.5313 deg

Mean anomaly: 113.4828 deg

Mean motion: 15.70999763 rev/day

Mean motion (dot): 0.00361869 rev/day2

B* drag term: 0.0026827095 1/REarth

Two-line elements (TLE)

Creation date: Dec. 12, 2025, 10:14 a.m.

Reference frame: TEME

Reference center: EARTH

Epoch: Dec. 12, 2025, 2:32 a.m. UTC

TLE line 0: 0 STARLINK-11743

TLE line 1: 1 64379U 25127K 25346.10578832 .00361869 00000-0 26827-2 0 9990

TLE line 2: 2 64379 42.9990 252.8241 0006913 246.5313 113.4828 15.70999763 29724

Live tracking on map

Real-time ground track for satellite STARLINK-11743.

In-orbit conjunctions

There are no conjunctions computed for STARLINK-11743, at the moment. Check back to stay up to date, as we update our databases every day.

Go to all conjunctions

Associated space launch

A batch of 23 satellites for the Starlink mega-constellation - SpaceX's project for space-based Internet communication system.

STARLINK-11743 was lifted into orbit during the mission ‘Falcon 9 Block 5 | Starlink Group 12-26’, on board a Falcon 9 space rocket.

The launch took place on June 13, 2025, 3:29 p.m. from Space Launch Complex 40.

For more information about the launch, click the button.

Launch to space Falcon 9 Block 5 | Starlink Group 12-26
Falcon 9 Block 5 | Starlink Group 12-26

Agency: SpaceX

Status: Launch Successful

Launch date: June 13, 2025, 3:29 p.m. UTC

Rocket: Falcon 9

Launch pad: Space Launch Complex 40

Location: Cape Canaveral SFS, FL, USA

...

Latest news about this satellite

News about space launch
Live coverage: SpaceX to launch 23 Starlink satellites on Falcon 9 rocket from Cape Canaveral

The Starlink 12-26 mission represents the 490th Falcon 9 rocket launch to date. SpaceX is targeting a liftoff from pad 40 at Cape Canaveral Space Force Station at 11:21 a.m. EDT (1521 UTC).

News about space launch
Launch Roundup: ULA to launch Kuiper’s second batch of satellites, SpaceX to launch Axiom crew to ISS

SpaceX will launch Axiom Space’s fourth private crewed mission to the International Space Station (ISS)… The post Launch Roundup: ULA to launch Kuiper’s second batch of satellites, SpaceX to launch Axiom crew to ISS appeared first on NASASpaceFlight.com.


Newsletter sign-up

Weekly statistics, charts and insights to help you stay on top of the space industry.